DW4379 Weather Reports


Display with metric or nautical units.
time (UTC)temp
F
wind
direction
speed
MPH
gust
MPH
rain 1hr
in
rain 24hr
in
rain mn
in
humidity
%
barometer
mb
20260507124503 44 233 0.0 1.0 0.00 0.00 0.00 90 1015.8
20260507124003 44 233 0.0 1.0 0.00 0.00 0.00 91 1015.8
20260507123503 44 0 0.0 0.0 0.00 0.00 0.00 92 1015.9
20260507123003 43 0 0.0 0.0 0.00 0.00 0.00 93 1015.8
20260507122503 43 233 0.0 1.0 0.00 0.00 0.00 93 1015.7
20260507122004 42 252 0.0 1.0 0.00 0.00 0.00 93 1015.8
20260507121503 42 255 0.0 1.0 0.00 0.00 0.00 93 1015.7
20260507121003 42 0 0.0 0.0 0.00 0.00 0.00 93 1015.7
20260507120503 42 0 0.0 0.0 0.00 0.00 0.00 94 1015.6
20260507120004 41 0 0.0 0.0 0.00 0.00 0.00 94 1015.5
20260507115503 41 0 0.0 0.0 0.00 0.00 0.00 94 1015.5
20260507115217 40 0 0.0 0.0 0.00 0.00 0.00 94 1015.5
20260507114503 40 0 0.0 0.0 0.00 0.00 0.00 93 1015.4
20260507114003 39 0 0.0 0.0 0.00 0.00 0.00 93 1015.4
20260507113503 39 0 0.0 0.0 0.00 0.00 0.00 93 1015.4
20260507113004 39 0 0.0 0.0 0.00 0.00 0.00 93 1015.3
20260507112718 39 0 0.0 0.0 0.00 0.00 0.00 93 1015.3
20260507112003 38 0 0.0 0.0 0.00 0.00 0.00 93 1015.2
20260507111504 38 0 0.0 0.0 0.00 0.00 0.00 93 1015.1
20260507111003 38 0 0.0 0.0 0.00 0.00 0.00 93 1015.0
20260507110503 38 0 0.0 0.0 0.00 0.00 0.00 93 1015.1
20260507110217 38 0 0.0 0.0 0.00 0.00 0.00 93 1015.1
20260507105503 38 0 0.0 0.0 0.00 0.00 0.00 93 1015.1
20260507105003 38 0 0.0 0.0 0.00 0.00 0.00 93 1015.1
20260507104504 38 0 0.0 0.0 0.00 0.00 0.00 93 1015.1
20260507104003 38 0 0.0 0.0 0.00 0.00 0.00 93 1015.2
20260507103718 38 0 0.0 0.0 0.00 0.00 0.00 93 1015.1
20260507103003 38 0 0.0 0.0 0.00 0.00 0.00 93 1015.2
20260507102503 38 0 0.0 0.0 0.00 0.00 0.00 92 1015.2
20260507102216 38 0 0.0 0.0 0.00 0.00 0.00 92 1015.2
20260507101503 38 0 0.0 0.0 0.00 0.00 0.00 92 1015.1
20260507101003 38 0 0.0 0.0 0.00 0.00 0.00 92 1015.1
20260507100503 38 0 0.0 0.0 0.00 0.00 0.00 92 1015.2
20260507100004 38 0 0.0 0.0 0.00 0.00 0.00 92 1015.3
20260507095503 38 0 0.0 0.0 0.00 0.00 0.00 92 1015.2
20260507095003 38 0 0.0 0.0 0.00 0.00 0.00 92 1015.4
20260507094718 38 0 0.0 0.0 0.00 0.00 0.00 92 1015.4
20260507094003 38 0 0.0 0.0 0.00 0.00 0.00 91 1015.3
20260507093717 38 0 0.0 0.0 0.00 0.00 0.00 91 1015.3
20260507093003 39 0 0.0 0.0 0.00 0.00 0.00 91 1015.3
20260507092717 39 0 0.0 0.0 0.00 0.00 0.00 91 1015.3
20260507092003 39 0 0.0 0.0 0.00 0.00 0.00 92 1015.3
20260507091503 39 0 0.0 0.0 0.00 0.00 0.00 92 1015.2
20260507091003 39 0 0.0 0.0 0.00 0.00 0.00 91 1015.2
20260507090503 39 0 0.0 0.0 0.00 0.00 0.00 91 1015.2
20260507090004 39 0 0.0 0.0 0.00 0.00 0.00 91 1015.1
20260507085503 39 0 0.0 0.0 0.00 0.00 0.00 91 1015.1
20260507085003 39 0 0.0 0.0 0.00 0.00 0.00 91 1015.1
20260507084503 39 0 0.0 0.0 0.00 0.00 0.00 91 1015.0
20260507084003 40 0 0.0 0.0 0.00 0.00 0.00 90 1015.0
20260507083503 40 0 0.0 0.0 0.00 0.00 0.00 90 1015.0
20260507083218 40 0 0.0 0.0 0.00 0.00 0.00 90 1015.0
20260507082503 40 0 0.0 0.0 0.00 0.00 0.00 90 1015.1
20260507082218 40 0 0.0 0.0 0.00 0.00 0.00 90 1015.1
20260507081503 40 0 0.0 0.0 0.00 0.00 0.00 90 1015.2
20260507081004 40 0 0.0 0.0 0.00 0.00 0.00 90 1015.1
20260507080503 40 0 0.0 0.0 0.00 0.00 0.00 90 1015.1
20260507080218 40 0 0.0 0.0 0.00 0.00 0.00 90 1015.0
20260507075503 41 0 0.0 0.0 0.00 0.00 0.00 89 1015.1
20260507075003 41 0 0.0 0.0 0.00 0.00 0.00 89 1015.1
20260507074503 41 0 0.0 0.0 0.00 0.00 0.00 89 1015.1
20260507074003 41 0 0.0 0.0 0.00 0.00 0.00 88 1015.0
20260507073503 41 0 0.0 0.0 0.00 0.00 0.00 88 1015.1
20260507073004 41 0 0.0 0.0 0.00 0.00 0.00 88 1015.1
20260507072503 41 0 0.0 0.0 0.00 0.00 0.00 88 1015.0
20260507072003 42 0 0.0 0.0 0.00 0.00 0.00 88 1015.1
20260507071718 42 0 0.0 0.0 0.00 0.00 0.00 87 1015.1
20260507071003 42 0 0.0 0.0 0.00 0.00 0.00 87 1015.1
20260507070504 42 0 0.0 0.0 0.00 0.00 0.00 87 1015.1
20260507070007 42 0 0.0 0.0 0.00 0.00 0.00 87 1015.2
20260507065504 42 0 0.0 0.0 0.00 0.00 0.00 86 1015.2
20260507065003 42 0 0.0 0.0 0.00 0.00 0.00 86 1015.2
20260507064504 43 0 0.0 0.0 0.00 0.00 0.00 86 1015.3
20260507064003 43 0 0.0 0.0 0.00 0.00 0.00 85 1015.3
20260507063503 43 0 0.0 0.0 0.00 0.00 0.00 85 1015.3
20260507063003 43 0 0.0 0.0 0.00 0.00 0.00 85 1015.4
20260507062503 43 0 0.0 0.0 0.00 0.00 0.00 84 1015.3
20260507062003 44 0 0.0 0.0 0.00 0.00 0.00 84 1015.4
20260507061503 44 0 0.0 0.0 0.00 0.00 0.00 84 1015.5
20260507061217 44 0 0.0 0.0 0.00 0.00 0.00 84 1015.5
20260507060503 44 0 0.0 0.0 0.00 0.00 0.00 83 1015.5
20260507060217 44 0 0.0 0.0 0.00 0.00 0.00 83 1015.4
20260507055503 44 0 0.0 0.0 0.00 0.00 0.00 82 1015.3
20260507055003 44 0 0.0 0.0 0.00 0.00 0.00 81 1015.5
20260507054503 45 0 0.0 0.0 0.00 0.00 0.00 81 1015.4
20260507054003 45 0 0.0 0.0 0.00 0.00 0.00 81 1015.4
20260507053718 45 0 0.0 0.0 0.00 0.00 0.00 81 1015.4
20260507053004 45 0 0.0 0.0 0.00 0.00 0.00 81 1015.5
20260507052503 44 0 0.0 0.0 0.00 0.00 0.00 82 1015.4
20260507052003 44 0 0.0 0.0 0.00 0.00 0.00 85 1015.3
20260507051503 43 0 0.0 0.0 0.00 0.00 0.00 87 1015.3
20260507051003 43 0 0.0 0.0 0.00 0.00 0.00 88 1015.3
20260507050503 43 0 0.0 0.0 0.00 0.00 0.00 88 1015.3
20260507050003 44 0 0.0 0.0 0.00 0.00 0.00 88 1015.2
20260507045503 44 0 0.0 0.0 0.00 0.00 0.00 87 1015.2
20260507045003 44 0 0.0 0.0 0.00 0.00 0.00 86 1015.2
20260507044503 44 0 0.0 0.0 0.00 0.00 0.00 86 1015.1
20260507044003 45 0 0.0 0.0 0.00 0.00 0.00 85 1015.1
20260507043508 45 0 0.0 0.0 0.00 0.00 0.00 84 1015.1
20260507043003 45 0 0.0 0.0 0.00 0.00 0.00 84 1015.2
20260507042503 45 0 0.0 0.0 0.00 0.00 0.00 83 1015.2
20260507042003 46 0 0.0 0.0 0.00 0.00 0.00 83 1015.2
20260507041717 46 0 0.0 0.0 0.00 0.00 0.00 82 1015.2
20260507041003 46 0 0.0 0.0 0.00 0.00 0.00 82 1015.1
20260507040503 46 0 0.0 0.0 0.00 0.00 0.00 82 1015.1
20260507040006 46 0 0.0 0.0 0.00 0.00 0.00 81 1015.1
20260507035503 46 0 0.0 0.0 0.00 0.00 0.00 81 1015.1
20260507035003 46 0 0.0 0.0 0.00 0.00 0.00 80 1015.1
20260507034504 47 0 0.0 0.0 0.00 0.00 0.00 80 1015.1
20260507034003 47 0 0.0 0.0 0.00 0.00 0.00 79 1015.1
20260507033503 47 0 0.0 0.0 0.00 0.00 0.00 79 1015.1
20260507033218 47 0 0.0 0.0 0.00 0.00 0.00 79 1015.0
20260507032503 47 0 0.0 0.0 0.00 0.00 0.00 78 1015.1
20260507032003 48 0 0.0 0.0 0.00 0.00 0.00 78 1015.1
20260507031503 48 0 0.0 0.0 0.00 0.00 0.00 78 1015.1
20260507031003 48 0 0.0 0.0 0.00 0.00 0.00 78 1015.0
20260507030503 48 0 0.0 0.0 0.00 0.00 0.00 77 1015.0
20260507030003 48 0 0.0 0.0 0.00 0.00 0.00 76 1015.0
20260507025503 49 0 0.0 0.0 0.00 0.00 0.00 76 1015.0
20260507025003 49 0 0.0 0.0 0.00 0.00 0.00 75 1015.0
20260507024503 49 0 0.0 0.0 0.00 0.00 0.00 75 1014.9
20260507024218 49 0 0.0 0.0 0.00 0.00 0.00 74 1014.9
20260507023503 50 0 0.0 0.0 0.00 0.00 0.00 72 1014.8
20260507023003 50 0 0.0 0.0 0.00 0.00 0.00 71 1014.9
20260507022504 50 0 0.0 0.0 0.00 0.00 0.00 70 1014.7
20260507022003 50 0 0.0 0.0 0.00 0.00 0.00 70 1014.7
20260507021503 51 0 0.0 0.0 0.00 0.00 0.00 70 1014.6
20260507021003 51 0 0.0 0.0 0.00 0.00 0.00 70 1014.6
20260507020503 51 0 0.0 0.0 0.00 0.00 0.00 70 1014.5
20260507020003 52 0 0.0 0.0 0.00 0.00 0.00 70 1014.4
20260507015503 52 0 0.0 0.0 0.00 0.00 0.00 70 1014.3
20260507015004 52 0 0.0 0.0 0.00 0.00 0.00 67 1014.2
20260507014503 53 0 0.0 0.0 0.00 0.00 0.00 65 1014.2
20260507014003 53 0 0.0 0.0 0.00 0.00 0.00 65 1014.3
20260507013503 53 0 0.0 0.0 0.00 0.00 0.00 63 1014.2
20260507013003 54 0 0.0 0.0 0.00 0.00 0.00 63 1014.2
20260507012504 54 0 0.0 0.0 0.00 0.00 0.00 62 1014.1
20260507012003 54 0 0.0 0.0 0.00 0.00 0.00 62 1014.1
20260507011503 54 0 0.0 0.0 0.00 0.00 0.00 61 1014.1
20260507011003 55 0 0.0 0.0 0.00 0.00 0.00 60 1014.0
20260507010503 55 0 0.0 0.0 0.00 0.00 0.00 60 1013.9
20260507010004 55 0 0.0 0.0 0.00 0.00 0.00 59 1013.9
20260507005718 55 0 0.0 0.0 0.00 0.00 0.00 59 1013.9
20260507005003 56 0 0.0 0.0 0.00 0.00 0.00 59 1013.9
20260507004503 56 0 0.0 0.0 0.00 0.00 0.00 59 1013.9
20260507004003 56 0 0.0 0.0 0.00 0.00 0.00 59 1013.8
20260507003503 56 0 0.0 0.0 0.00 0.00 0.00 58 1013.8
20260507003003 56 0 0.0 0.0 0.00 0.00 0.00 58 1013.8
20260507002718 57 0 0.0 0.0 0.00 0.00 0.00 58 1013.7
20260507002003 57 305 0.0 1.0 0.00 0.00 0.00 58 1013.6
20260507001503 57 282 0.0 1.0 0.00 0.00 0.00 57 1013.6
20260507001003 57 0 0.0 0.0 0.00 0.00 0.00 58 1013.6
20260507000503 58 0 0.0 0.0 0.00 0.00 0.00 58 1013.5
20260507000004 58 0 0.0 0.0 0.00 0.00 0.00 58 1013.5
20260506235503 58 0 0.0 0.0 0.00 0.00 0.00 57 1013.4
20260506235003 58 309 0.0 1.0 0.00 0.00 0.00 57 1013.2
20260506234504 58 306 0.0 1.0 0.00 0.00 0.00 56 1013.1
20260506234003 58 323 0.0 2.0 0.00 0.00 0.00 56 1013.1
20260506233503 58 329 0.0 2.0 0.00 0.00 0.00 54 1013.1
20260506233216 58 297 0.0 1.0 0.00 0.00 0.00 53 1013.2
20260506232503 59 308 1.0 2.0 0.00 0.00 0.00 52 1013.3
20260506232003 59 308 1.0 2.0 0.00 0.00 0.00 51 1013.3
20260506231503 59 307 1.0 2.0 0.00 0.00 0.00 52 1013.3
20260506231003 59 301 1.0 3.0 0.00 0.00 0.00 51 1013.2
20260506230503 59 304 1.0 3.0 0.00 0.00 0.00 51 1013.3
20260506230003 59 310 1.0 2.0 0.00 0.00 0.00 50 1013.4
20260506225503 59 305 1.0 1.0 0.00 0.00 0.00 51 1013.5
20260506225003 60 302 0.0 2.0 0.00 0.00 0.00 51 1013.5
20260506224503 60 303 0.0 2.0 0.00 0.00 0.00 50 1013.5
20260506224003 60 312 0.0 2.0 0.00 0.00 0.00 53 1013.4
20260506223503 60 312 0.0 2.0 0.00 0.00 0.00 53 1013.4
20260506223003 60 302 0.0 1.0 0.00 0.00 0.00 52 1013.5
20260506222717 60 306 0.0 1.0 0.00 0.00 0.00 52 1013.6
20260506222004 60 309 1.0 3.0 0.00 0.00 0.00 51 1013.6
20260506221504 60 304 1.0 3.0 0.00 0.00 0.00 51 1013.6
20260506221003 60 304 1.0 2.0 0.00 0.00 0.00 52 1013.6
20260506220503 59 310 0.0 2.0 0.00 0.00 0.00 51 1013.6
20260506220004 59 315 0.0 2.0 0.00 0.00 0.00 54 1013.6
20260506215503 58 310 0.0 2.0 0.00 0.00 0.00 54 1013.6
20260506215218 58 305 0.0 2.0 0.00 0.00 0.00 54 1013.6
20260506214503 59 308 1.0 3.0 0.00 0.00 0.00 54 1013.6
20260506214003 59 310 1.0 3.0 0.00 0.00 0.00 52 1013.7
20260506213503 60 304 1.0 3.0 0.00 0.00 0.00 52 1013.7
20260506213003 60 294 1.0 3.0 0.00 0.00 0.00 54 1013.6
20260506212717 59 285 1.0 3.0 0.00 0.00 0.00 54 1013.6
20260506212003 60 283 0.0 2.0 0.00 0.00 0.00 52 1013.7
20260506211503 60 281 0.0 2.0 0.00 0.00 0.00 53 1013.6
20260506211218 60 283 0.0 2.0 0.00 0.00 0.00 54 1013.6
20260506210717 60 288 0.0 2.0 0.00 0.00 0.00 54 1013.6
20260506210004 60 338 0.0 3.0 0.00 0.00 0.00 54 1013.6
20260506205503 60 330 0.0 3.0 0.00 0.00 0.00 55 1013.5
20260506205003 60 280 0.0 1.0 0.00 0.00 0.00 55 1013.6
20260506204503 60 269 0.0 2.0 0.00 0.00 0.00 54 1013.8
20260506204218 60 267 0.0 2.0 0.00 0.00 0.00 54 1013.8
20260506203503 60 267 0.0 3.0 0.00 0.00 0.00 55 1013.6
20260506203003 59 278 0.0 3.0 0.00 0.00 0.00 57 1013.5
20260506202503 59 272 0.0 4.0 0.00 0.00 0.00 54 1013.5
20260506202003 59 289 1.0 4.0 0.00 0.00 0.00 57 1013.6
20260506201503 59 325 1.0 3.0 0.00 0.00 0.00 56 1013.5
20260506201004 59 327 1.0 4.0 0.00 0.00 0.00 57 1013.6
20260506200503 59 330 1.0 4.0 0.00 0.00 0.00 59 1013.5
20260506200008 58 319 0.0 3.0 0.00 0.00 0.00 59 1013.6
20260506195503 58 314 0.0 2.0 0.00 0.00 0.00 62 1013.7
20260506195217 58 312 0.0 2.0 0.00 0.00 0.00 63 1013.7
20260506194503 58 303 1.0 4.0 0.00 0.00 0.00 62 1013.7
20260506194217 58 302 1.0 4.0 0.00 0.00 0.00 60 1013.7
20260506193503 57 304 0.0 2.0 0.00 0.00 0.00 66 1013.8
20260506193003 57 304 0.0 1.0 0.00 0.00 0.00 67 1013.8
20260506192504 57 306 0.0 2.0 0.00 0.00 0.00 66 1013.9
20260506192003 57 297 0.0 3.0 0.00 0.00 0.00 69 1013.9
20260506191718 57 296 0.0 3.0 0.00 0.00 0.00 70 1013.9
20260506191217 57 276 0.0 3.0 0.00 0.00 0.00 71 1013.9
20260506190503 57 274 0.0 2.0 0.00 0.00 0.00 69 1013.9
20260506190217 57 304 0.0 1.0 0.00 0.00 0.00 71 1013.9
20260506185718 57 283 0.0 1.0 0.00 0.00 0.00 70 1013.9
20260506185003 57 278 0.0 1.0 0.00 0.00 0.00 68 1013.8
20260506184718 57 289 0.0 1.0 0.00 0.00 0.00 68 1013.8
20260506184003 57 313 0.0 2.0 0.00 0.00 0.00 69 1013.8
20260506183503 57 303 0.0 1.0 0.00 0.00 0.00 70 1013.8
20260506183004 57 302 0.0 1.0 0.00 0.00 0.00 68 1013.6
20260506182503 57 296 0.0 2.0 0.00 0.00 0.00 71 1013.6
20260506182217 57 293 0.0 2.0 0.00 0.00 0.00 71 1013.7
20260506181503 56 285 0.0 1.0 0.00 0.00 0.00 73 1013.7
20260506181003 56 294 0.0 1.0 0.00 0.00 0.00 73 1013.7
20260506180503 56 305 0.0 1.0 0.00 0.00 0.00 72 1013.7
20260506180004 56 308 0.0 1.0 0.00 0.00 0.00 73 1013.7
20260506175718 56 309 0.0 1.0 0.00 0.00 0.00 74 1013.7
20260506175003 56 307 0.0 1.0 0.00 0.00 0.00 74 1013.7
20260506174503 56 296 0.0 1.0 0.00 0.00 0.00 74 1013.8
20260506174004 56 296 0.0 1.0 0.00 0.00 0.00 74 1013.8
20260506173503 56 283 0.0 1.0 0.00 0.00 0.00 74 1013.8
20260506173003 56 240 0.0 1.0 0.00 0.00 0.00 74 1013.7
20260506172503 56 240 0.0 1.0 0.00 0.00 0.00 74 1013.7
20260506172003 56 239 0.0 1.0 0.00 0.00 0.00 72 1013.8
20260506171503 56 243 0.0 1.0 0.00 0.00 0.00 75 1013.8
20260506171004 56 249 0.0 1.0 0.00 0.00 0.00 75 1013.8
20260506170503 56 250 0.0 1.0 0.00 0.00 0.00 75 1013.8
20260506170218 56 250 0.0 1.0 0.00 0.00 0.00 75 1013.7
20260506165503 55 248 0.0 1.0 0.00 0.00 0.00 76 1013.7
20260506165004 55 293 0.0 1.0 0.00 0.00 0.00 74 1013.8
20260506164503 55 293 0.0 1.0 0.00 0.00 0.00 74 1013.8
20260506164003 55 161 0.0 1.0 0.00 0.00 0.00 74 1013.7
20260506163717 55 204 0.0 1.0 0.00 0.00 0.00 75 1013.7
20260506163003 55 243 0.0 1.0 0.00 0.00 0.00 78 1013.5
20260506162503 55 0 0.0 0.0 0.00 0.00 0.00 78 1013.5
20260506162003 54 316 0.0 1.0 0.00 0.00 0.00 77 1013.6
20260506161503 54 236 0.0 3.0 0.00 0.00 0.00 78 1013.5
20260506161003 54 229 0.0 3.0 0.00 0.00 0.00 78 1013.6
20260506160503 54 0 0.0 0.0 0.00 0.00 0.00 80 1013.6
20260506160003 54 286 0.0 1.0 0.00 0.00 0.00 79 1013.5
20260506155503 54 279 0.0 1.0 0.00 0.00 0.00 80 1013.5
20260506155218 54 271 0.0 1.0 0.00 0.00 0.00 81 1013.5
20260506154503 54 269 0.0 1.0 0.00 0.00 0.00 83 1013.5
20260506154003 53 290 0.0 1.0 0.00 0.00 0.00 84 1013.2
20260506153503 53 260 0.0 1.0 0.00 0.00 0.00 84 1013.2
20260506153004 52 241 0.0 1.0 0.00 0.00 0.00 86 1013.2
20260506152503 52 241 0.0 1.0 0.00 0.00 0.00 87 1013.1
20260506152003 52 241 0.0 1.0 0.00 0.00 0.00 88 1013.1
20260506151503 52 241 0.0 1.0 0.00 0.00 0.00 88 1013.1
20260506151218 51 244 0.0 1.0 0.00 0.00 0.00 88 1013.0
20260506150504 51 295 0.0 1.0 0.00 0.00 0.00 89 1013.0
20260506150217 51 332 0.0 1.0 0.00 0.00 0.00 89 1013.0
20260506145503 51 332 0.0 1.0 0.00 0.00 0.00 90 1013.1
20260506145003 51 0 0.0 0.0 0.00 0.00 0.00 92 1013.1
20260506144504 51 316 0.0 1.0 0.00 0.00 0.00 93 1013.1
20260506144003 50 315 0.0 1.0 0.00 0.00 0.00 93 1012.9
20260506143503 50 314 0.0 1.0 0.00 0.00 0.00 94 1012.9
20260506143003 50 302 0.0 1.0 0.00 0.00 0.00 95 1012.9
20260506142503 50 297 0.0 2.0 0.00 0.00 0.00 96 1013.0
20260506142003 50 300 0.0 2.0 0.00 0.00 0.00 96 1012.8
20260506141718 50 0 0.0 0.0 0.00 0.00 0.00 97 1012.9
20260506141003 50 0 0.0 0.0 0.00 0.00 0.00 97 1012.8
20260506140503 50 0 0.0 0.0 0.00 0.00 0.00 97 1012.7
20260506140004 50 338 0.0 1.0 0.00 0.00 0.00 97 1012.6
20260506135503 50 336 0.0 1.0 0.00 0.00 0.00 98 1012.5
20260506135003 50 326 0.0 1.0 0.00 0.00 0.00 98 1012.5
20260506134718 49 326 0.0 1.0 0.00 0.00 0.00 98 1012.5
20260506134217 49 0 0.0 0.0 0.00 0.00 0.00 98 1012.6
20260506133503 49 0 0.0 0.0 0.00 0.00 0.00 98 1012.5
20260506133003 49 0 0.0 0.0 0.00 0.00 0.00 97 1012.4
20260506132503 49 0 0.0 0.0 0.00 0.00 0.00 98 1012.5
20260506132003 48 0 0.0 0.0 0.00 0.00 0.00 97 1012.5
20260506131503 48 0 0.0 0.0 0.00 0.00 0.00 98 1012.5
20260506131003 48 0 0.0 0.0 0.00 0.00 0.00 98 1012.4
20260506130718 48 0 0.0 0.0 0.00 0.00 0.00 98 1012.3
20260506130004 48 0 0.0 0.0 0.00 0.00 0.00 97 1012.5
20260506125503 48 0 0.0 0.0 0.00 0.00 0.00 97 1012.3
20260506125003 48 0 0.0 0.0 0.00 0.00 0.00 97 1012.0